Regional Weather Roundup
Issued by NWS Goodland, KS

Home | Current Version | Previous Version | Graphics & Text | Print | Product List | Glossary On
Versions: 1 2 3 4 5 6 7 8 9 10 11 12 13 14 15 16 17 18 19 20 21 22 23 24 25 26 27 28 29 30 31 32 33 34 35 36 37 38 39 40 41 42 43 44 45 46 47 48 49 50
000
ASUS43 KGLD 280459
RWRGLD

GOODLAND FORECAST AREA HOURLY WEATHER ROUNDUP
NATIONAL WEATHER SERVICE GOODLAND KS
1100 PM MDT WED APR 27 2016

...OFFICIAL OBSERVATIONS...

CITY           SKY/WX    TMP DP  RH WIND       PRES   REMARKS
GOODLAND KS    CLEAR     39  31  72 N12       29.86R
HILL CITY KS   CLEAR     43  36  76 NW9       29.86R
IMPERIAL NEB   CLEAR     37  31  78 NW14      29.89R
MCCOOK NEB     CLEAR     37  32  82 NW9       29.86R
AKRON CO       CLEAR     31  25  78 NW13      29.90S
BURLINGTON CO  PTCLDY    39  30  70 N9        29.89R
LIMON CO       CLOUDY    37  27  67 N8        29.90R
$$

...UNOFFICIAL OBSERVATIONS...

CITY           SKY/WX    TMP DP  RH WIND       PRES   REMARKS
COLBY KS       CLEAR     39  39 100 NW8       29.87R
GOVE KS          N/A     39  32  76 MISG        N/A
LENORA KS        N/A     40  32  73 MISG        N/A
NORTON KS      CLEAR     39  32  75 NW9       29.83S
SHARON SPRINGS   N/A     40  33  75 N7          N/A
KIT CARSON CO    N/A     41  30  64 MISG        N/A
YUMA CO          N/A     34  28  79 CALM        N/A
$$




USA.gov is the U.S. government's official web portal to all federal, state and local government web resources and services.